Location: Cremona
(45.1170°N, 10.0330°E)
Time: 22:07:29
(UTC+01:00)

ISS - Pass Details

Date: 25 January 2019
Orbit: 403 x 411 km, 51.6° (Epoch: 22 February)

Event Time Altitude Azimuth Distance (km) Brightness Sun altitude
Rises 20:01:59 0° 269° (W) 2,334 1.3 -29.0°
Reaches altitude 10° 20:04:12 10° 279° (W) 1,476 -0.1 -29.4°
Enters shadow 20:04:58 15° 286° (WNW) 1,206 -0.7 -29.5°
